International Skating Union - Official Site

ISU World Junior Speed Skating Championships 2017
February 17-19, 2017

Draw | Lap Times | Index

Referee: Melanie  SYMALLA  (GER)
Starter: Sebastian  ZAMANI  (SWE)
StartTime: EndTime: Air Temp: Ice Temp: Humidity:
13:19 13:26 3.6℃ -3.5℃ 93%
Result Mass Start Final Men 
Rankings as of Feb 19 2017 1:32PM
Rank: No.: Name: Nation: Sprint Points: Time: Behind:
1 49 Chris  Huizinga NED NED 30 6:13.44
2 44 Hyun Min  Oh KOR KOR 20 6:14.13 0.69
3 8 Graeme  Fish CAN CAN 10 6:14.42 0.98
4 25 Ole  Jeske GER GER 5 6:44.31 30.87
5 22 Samuli  Suomalainen FIN FIN 3 6:43.51 30.07
6 18 Oliver   Lindenskov DEN DEN 1 6:43.75 30.31
7 43 Do Hyung  Lee KOR KOR 6:14.57 1.13
8 11 Tyson  Langelaar CAN CAN 6:14.69 1.25
9 36 Aoi  Yokoyama JPN JPN 6:14.72 1.28
10 14 Alemasi  Kahanbai CHN CHN 6:14.94 1.50
11 34 Kohki  Takamisawa JPN JPN 6:15.01 1.57
12 13 Yanan  Jin CHN CHN 6:15.25 1.81
13 30 Gabriele  Galli ITA ITA 6:16.17 2.73
14 2 Gabriel  Odor AUT AUT 6:16.18 2.74
15 59 Mateusz  Owczarek POL POL 6:16.66 3.22
16 27 Jeremias  Marx GER GER 6:16.75 3.31
17 56 Vetle  Stangelan NOR NOR 6:17.38 3.94
18 17 Jakub  Kopriva CZE CZE 6:17.50 4.06
19 67 Colin  Biermann SUI SUI 6:17.57 4.13
20 60 Jan   Swiatek POL POL 6:17.64 4.20
21 19 Kaspar  Kaljuvee EST EST 6:18.50 5.06
22 51 Marwin  Talsma NED NED 6:18.59 5.15
23 70 Ethan  Cepuran USA USA 6:20.01 6.57
24 54 Magnus Bakken  Haugli NOR NOR 6:21.46 8.02
25 69 David  Karlingsjö SWE SWE 6:43.00 29.56
26 3 Evgeniy  Bolgov BLR BLR 6:48.20 34.76
27 40 Demyan  Gavrilov KAZ KAZ 6:51.71 38.27
28 63 Isa  Izmailov RUS RUS 6:51.86 38.42